Location: ?????
(30.4569°N, 47.8921°E)
Time: 04:56:27
(UTC+00:00)

Cosmos 1934 Rocket - Pass Details

Date: 07 June 2020
Orbit: 938 x 999 km, 83.0° (Epoch: 03 July)

Event Time Altitude Azimuth Distance (km) Brightness Sun altitude
Rises 00:45:30 0° 178° (S) 3,604 6.6 -11.9°
Reaches altitude 10° 00:47:59 10° 177° (S) 2,656 6.0 -11.5°
Maximum altitude 00:54:01 73° 93° (E) 983 4.2 -10.4°
Drops below altitude 10° 01:00:02 10° 10° (N) 2,654 7.0 -9.3°
Sets 01:02:31 0° 9° (N) 3,602 7.6 -8.9°
